Preview of NWS' New Version of Forecast
This preview is not operational and should not be used for support decisions.

Regional Weather Roundup (RWR)

Issued by National Weather Service (NWS)

                            
000
ASCA42 TJSJ 180110
RWRPR 
PUERTO RICO/U.S. VIRGIN ISLANDS HOURLY WEATHER ROUNDUP
NATIONAL WEATHER SERVICE SAN JUAN PR
900 PM AST SUN MAR 17 2019

PRZ001>002-007>008-010-180200-
PUERTO RICO
  
CITY           SKY/WX    TMP DP  RH WIND       PRES   REMARKS
SAN JUAN LMM   PTCLDY    79  70  73 SE6       30.03R                  
AGUADILLA      CLOUDY    75  70  83 E7        30.03R                  
$$

VIZ001>002-180200-
U.S. VIRGIN ISLANDS
  
CITY           SKY/WX    TMP DP  RH WIND       PRES   REMARKS
CHARLOTTE AMA  CLEAR     79  68  69 E9        30.03R                  
CHRISTIANSTED  PTCLDY    75  68  78 NE9       30.04R                  
$$

HOURLY WEATHER ROUNDUP FOR THE NEWS MEDIA
  
CITY           SKY/WX    TMP DP  RH WIND       PRES   REMARKS
ORLANDO        CLOUDY    61  53  75 N9        30.12R                  
NEW YORK       FAIR      40  12  32 NW18      30.21R WCI  31          
NEWARK         FAIR      40  11  30 NW10      30.20R WCI  33          
CHICAGO        MOCLDY    38  20  48 NW7       30.25R WCI  33          
HARTFORD       FAIR      34  11  38 CALM      30.14R                  
BOSTON         FAIR      36   8  31 NW10      30.14R WCI  28          
DALLAS         PTCLDY    63  29  27 E7        30.26R                  
PHILADELPHIA   FAIR      40  12  32 N8        30.21R WCI  34          
LOS ANGELES    MOSUNNY   68  46  45 W15       29.93F                  
WASHINGTON DC  MOCLDY    43  19  38 NE9       30.19R